| time (UTC) | temp C | wind direction | speed KPH | gust KPH | rain 1hr cm | rain 24hr cm | rain mn cm | humidity % | barometer mb |
| 20260507213019 | 13 | 273 | 0.0 | 0.0 | 0.00 | 0.00 | 0.00 | 83 | 1013.2 |
| 20260507211516 | 13 | 273 | 0.0 | 0.0 | 0.00 | 0.00 | 0.00 | 82 | 1013.0 |
| 20260507210043 | 13 | 273 | 0.0 | 0.0 | 0.00 | 0.00 | 0.00 | 82 | 1012.8 |
| 20260507204509 | 13 | 273 | 0.0 | 0.0 | 0.00 | 0.00 | 0.00 | 82 | 1012.8 |
| 20260507203040 | 14 | 273 | 0.0 | 0.0 | 0.00 | 0.00 | 0.00 | 81 | 1012.7 |
| 20260507201514 | 15 | 273 | 0.0 | 0.0 | 0.00 | 0.00 | 0.00 | 80 | 1012.6 |
| 20260507200043 | 15 | 273 | 0.0 | 0.0 | 0.00 | 0.00 | 0.00 | 80 | 1012.4 |
| 20260507194517 | 15 | 273 | 0.0 | 3.2 | 0.00 | 0.00 | 0.00 | 79 | 1012.3 |
| 20260507193051 | 15 | 271 | 0.0 | 6.4 | 0.00 | 0.00 | 0.00 | 79 | 1012.2 |
| 20260507191522 | 16 | 277 | 0.0 | 4.8 | 0.00 | 0.00 | 0.00 | 78 | 1012.1 |
| 20260507190056 | 16 | 264 | 3.2 | 6.4 | 0.00 | 0.00 | 0.00 | 78 | 1012.0 |
| 20260507184551 | 16 | 279 | 1.6 | 6.4 | 0.00 | 0.00 | 0.00 | 78 | 1012.1 |
| 20260507183016 | 16 | 288 | 1.6 | 8.0 | 0.00 | 0.00 | 0.00 | 77 | 1011.9 |
| 20260507181601 | 16 | 233 | 4.8 | 11.3 | 0.00 | 0.00 | 0.00 | 77 | 1012.0 |
| 20260507180123 | 16 | 255 | 6.4 | 11.3 | 0.00 | 0.00 | 0.00 | 76 | 1011.9 |
| 20260507174609 | 17 | 217 | 3.2 | 11.3 | 0.00 | 0.00 | 0.00 | 76 | 1011.9 |
| 20260507173030 | 17 | 220 | 8.0 | 14.5 | 0.00 | 0.00 | 0.00 | 75 | 1011.9 |
| 20260507171523 | 17 | 221 | 6.4 | 12.9 | 0.00 | 0.00 | 0.00 | 75 | 1011.9 |
| 20260507170054 | 17 | 265 | 4.8 | 14.5 | 0.00 | 0.00 | 0.00 | 74 | 1011.8 |
| 20260507164527 | 17 | 229 | 9.7 | 16.1 | 0.00 | 0.00 | 0.00 | 74 | 1012.0 |
| 20260507163059 | 17 | 227 | 9.7 | 17.7 | 0.00 | 0.00 | 0.00 | 73 | 1012.0 |
| 20260507161553 | 18 | 222 | 8.0 | 16.1 | 0.00 | 0.00 | 0.00 | 72 | 1012.1 |
| 20260507160021 | 18 | 238 | 8.0 | 17.7 | 0.00 | 0.00 | 0.00 | 72 | 1012.1 |
| 20260507154518 | 18 | 234 | 8.0 | 14.5 | 0.00 | 0.00 | 0.00 | 72 | 1012.2 |
| 20260507153054 | 18 | 236 | 9.7 | 17.7 | 0.00 | 0.00 | 0.00 | 72 | 1012.3 |
| 20260507151524 | 18 | 239 | 8.0 | 20.9 | 0.00 | 0.00 | 0.00 | 71 | 1012.4 |
| 20260507150054 | 18 | 242 | 6.4 | 19.3 | 0.00 | 0.00 | 0.00 | 73 | 1012.4 |
| 20260507144549 | 18 | 234 | 9.7 | 19.3 | 0.00 | 0.00 | 0.00 | 72 | 1012.6 |
| 20260507143025 | 18 | 242 | 9.7 | 19.3 | 0.00 | 0.00 | 0.00 | 72 | 1012.6 |
| 20260507141553 | 18 | 231 | 9.7 | 22.5 | 0.00 | 0.00 | 0.00 | 71 | 1012.8 |
| 20260507140020 | 18 | 209 | 9.7 | 19.3 | 0.00 | 0.00 | 0.00 | 69 | 1012.8 |
| 20260507134516 | 18 | 288 | 9.7 | 19.3 | 0.00 | 0.00 | 0.00 | 70 | 1012.7 |
| 20260507133048 | 18 | 217 | 11.3 | 22.5 | 0.00 | 0.00 | 0.00 | 70 | 1012.8 |
| 20260507131555 | 18 | 199 | 12.9 | 24.1 | 0.00 | 0.00 | 0.00 | 69 | 1013.1 |
| 20260507130011 | 18 | 217 | 11.3 | 22.5 | 0.00 | 0.00 | 0.00 | 69 | 1013.1 |
| 20260507124509 | 18 | 231 | 11.3 | 19.3 | 0.00 | 0.00 | 0.00 | 68 | 1013.0 |
| 20260507123033 | 18 | 227 | 9.7 | 24.1 | 0.00 | 0.00 | 0.00 | 66 | 1013.0 |
| 20260507121530 | 18 | 211 | 11.3 | 17.7 | 0.00 | 0.00 | 0.00 | 65 | 1013.0 |
| 20260507114613 | 18 | 196 | 8.0 | 17.7 | 0.00 | 0.00 | 0.00 | 67 | 1012.9 |
| 20260507113024 | 18 | 219 | 8.0 | 19.3 | 0.00 | 0.00 | 0.00 | 66 | 1012.9 |
| 20260507111521 | 18 | 237 | 8.0 | 16.1 | 0.00 | 0.00 | 0.00 | 68 | 1013.0 |
| 20260507110053 | 18 | 269 | 8.0 | 19.3 | 0.00 | 0.00 | 0.00 | 68 | 1012.7 |
| 20260507104546 | 18 | 273 | 6.4 | 16.1 | 0.00 | 0.00 | 0.00 | 67 | 1012.8 |
| 20260507103014 | 17 | 250 | 8.0 | 16.1 | 0.00 | 0.00 | 0.00 | 67 | 1013.0 |
| 20260507101602 | 17 | 228 | 9.7 | 14.5 | 0.00 | 0.00 | 0.00 | 66 | 1013.0 |
| 20260507100121 | 17 | 268 | 8.0 | 16.1 | 0.00 | 0.00 | 0.00 | 67 | 1013.1 |
| 20260507094556 | 17 | 232 | 8.0 | 14.5 | 0.00 | 0.00 | 0.00 | 67 | 1013.3 |
| 20260507093024 | 17 | 274 | 9.7 | 16.1 | 0.00 | 0.00 | 0.00 | 68 | 1013.3 |
| 20260507091521 | 17 | 222 | 9.7 | 14.5 | 0.00 | 0.00 | 0.00 | 68 | 1013.3 |
| 20260507090055 | 17 | 229 | 8.0 | 17.7 | 0.00 | 0.00 | 0.00 | 69 | 1013.1 |
| 20260507084547 | 17 | 223 | 8.0 | 16.1 | 0.00 | 0.00 | 0.00 | 69 | 1013.0 |
| 20260507083015 | 17 | 219 | 8.0 | 14.5 | 0.00 | 0.00 | 0.00 | 70 | 1012.9 |
| 20260507081522 | 16 | 234 | 6.4 | 12.9 | 0.00 | 0.00 | 0.00 | 70 | 1012.9 |
| 20260507080047 | 16 | 230 | 8.0 | 12.9 | 0.00 | 0.00 | 0.00 | 71 | 1012.8 |
| 20260507074527 | 16 | 234 | 6.4 | 11.3 | 0.00 | 0.00 | 0.00 | 75 | 1012.9 |
| 20260507073048 | 16 | 231 | 4.8 | 11.3 | 0.00 | 0.00 | 0.00 | 80 | 1012.9 |
| 20260507071542 | 15 | 213 | 4.8 | 8.0 | 0.00 | 0.00 | 0.00 | 84 | 1012.7 |
| 20260507070018 | 15 | 220 | 3.2 | 9.7 | 0.00 | 0.00 | 0.00 | 87 | 1012.8 |
| 20260507064507 | 15 | 228 | 1.6 | 9.7 | 0.00 | 0.00 | 0.00 | 88 | 1012.6 |
| 20260507063037 | 15 | 254 | 3.2 | 6.4 | 0.00 | 0.00 | 0.00 | 89 | 1012.5 |
| 20260507061509 | 14 | 291 | 0.0 | 0.0 | 0.00 | 0.00 | 0.00 | 89 | 1012.4 |
| 20260507060039 | 13 | 291 | 0.0 | 0.0 | 0.00 | 0.00 | 0.00 | 90 | 1012.5 |
| 20260507054538 | 13 | 291 | 0.0 | 0.0 | 0.00 | 0.00 | 0.00 | 89 | 1012.5 |
| 20260507053105 | 12 | 291 | 0.0 | 0.0 | 0.00 | 0.00 | 0.00 | 89 | 1012.4 |
| 20260507051541 | 11 | 291 | 0.0 | 0.0 | 0.00 | 0.00 | 0.00 | 89 | 1012.1 |
| 20260507050023 | 11 | 291 | 0.0 | 0.0 | 0.00 | 0.00 | 0.00 | 88 | 1012.1 |
| 20260507044552 | 11 | 291 | 0.0 | 0.0 | 0.00 | 0.00 | 0.00 | 87 | 1011.9 |
| 20260507043014 | 11 | 291 | 0.0 | 0.0 | 0.00 | 0.03 | 0.00 | 87 | 1011.8 |
| 20260507041509 | 12 | 291 | 0.0 | 0.0 | 0.00 | 0.03 | 0.00 | 87 | 1011.8 |
| 20260507040041 | 12 | 291 | 0.0 | 0.0 | 0.00 | 0.03 | 0.00 | 86 | 1011.8 |
| 20260507034514 | 12 | 291 | 0.0 | 0.0 | 0.00 | 0.03 | 0.00 | 86 | 1011.8 |
| 20260507033051 | 12 | 291 | 0.0 | 0.0 | 0.00 | 0.03 | 0.00 | 86 | 1011.8 |
| 20260507031555 | 12 | 291 | 0.0 | 0.0 | 0.00 | 0.03 | 0.00 | 85 | 1011.9 |
| 20260507030005 | 13 | 291 | 0.0 | 0.0 | 0.00 | 0.03 | 0.00 | 85 | 1011.9 |
| 20260507024559 | 13 | 291 | 0.0 | 0.0 | 0.00 | 0.03 | 0.00 | 85 | 1011.8 |
| 20260507023028 | 13 | 291 | 0.0 | 0.0 | 0.00 | 0.03 | 0.03 | 85 | 1011.9 |
| 20260507021523 | 14 | 291 | 0.0 | 0.0 | 0.00 | 0.03 | 0.03 | 85 | 1011.8 |
| 20260507020050 | 14 | 291 | 1.6 | 4.8 | 0.00 | 0.03 | 0.03 | 84 | 1011.9 |
| 20260507014548 | 15 | 291 | 0.0 | 6.4 | 0.00 | 0.03 | 0.03 | 84 | 1011.9 |
| 20260507013001 | 15 | 294 | 1.6 | 4.8 | 0.00 | 0.03 | 0.03 | 84 | 1011.9 |
| 20260507011559 | 15 | 302 | 3.2 | 6.4 | 0.00 | 0.03 | 0.03 | 84 | 1012.0 |
| 20260507010032 | 15 | 323 | 1.6 | 8.0 | 0.00 | 0.03 | 0.03 | 84 | 1012.1 |
| 20260507004558 | 15 | 276 | 6.4 | 16.1 | 0.00 | 0.03 | 0.03 | 83 | 1012.2 |
| 20260507003026 | 15 | 266 | 6.4 | 12.9 | 0.00 | 0.84 | 0.03 | 83 | 1012.2 |
| 20260507001526 | 15 | 265 | 8.0 | 17.7 | 0.00 | 0.84 | 0.03 | 83 | 1012.4 |
| 20260507000053 | 15 | 256 | 9.7 | 20.9 | 0.00 | 0.84 | 0.03 | 83 | 1012.4 |
| 20260506234549 | 15 | 265 | 9.7 | 20.9 | 0.00 | 0.84 | 0.03 | 83 | 1012.6 |
| 20260506233017 | 15 | 236 | 12.9 | 19.3 | 0.00 | 0.86 | 0.03 | 82 | 1012.7 |
| 20260506231505 | 15 | 241 | 11.3 | 27.4 | 0.00 | 0.86 | 0.03 | 82 | 1012.6 |
| 20260506230034 | 15 | 246 | 11.3 | 27.4 | 0.00 | 0.86 | 0.03 | 82 | 1012.8 |
| 20260506224506 | 15 | 259 | 9.7 | 20.9 | 0.00 | 0.86 | 0.03 | 81 | 1012.7 |
| 20260506223036 | 15 | 258 | 11.3 | 24.1 | 0.00 | 0.86 | 0.03 | 81 | 1012.8 |
| 20260506221532 | 15 | 261 | 11.3 | 29.0 | 0.00 | 0.86 | 0.03 | 80 | 1012.8 |
| 20260506220106 | 15 | 279 | 6.4 | 20.9 | 0.00 | 0.86 | 0.03 | 80 | 1012.7 |
| 20260506214559 | 15 | 256 | 4.8 | 12.9 | 0.00 | 0.86 | 0.03 | 79 | 1012.7 |